Weather in Lomovo

Russia / Belgorod Oblast     50°44′56″N   36°56′17″E
temp.,
°C
wind,
m/s
gust,
m/s
humid.,
%
clouds,
%
prec.,
mm/h
press.,
hPa
HPBL,
m
14 april, wed
wed1400:00+10ssw368678 0.0 1021157
03:00+9s128841 0.0 102133
06:00+8ene118997 0.0 102010
09:00+12e2275100 0.1 1019323
12:00+15nne236451 0.3 1017996
15:00+18sse244499 0.3 10151712
18:00+15w4468100 0.8 1015151
21:00+13nw227192 1.0 101516
15 april, thu
thu1500:00+11ne2272100 0.0 101428
03:00+10ese227198 0.0 101315
06:00+9sse228060 0.0 101330
09:00+12ssw447693 0.0 1014501
12:00+15ssw56566 0.0 10131174
15:00+16s564486 0.0 10132077
18:00+14s576493 0.3 1013866
21:00+11s2580100 0.5 1014264
16 april, fri
fri1600:00+10s23875 0.9 1014148
03:00+8se22865 0.9 101430
06:00+7sse37964 0.0 1015171
09:00+10s57740 0.0 1016659
12:00+13sse695585 0.0 10161623
15:00+12ssw785419 0.0 10171255
18:00+12ssw355477 0.0 10171054
21:00+10w116867 0.0 101823
17 april, sat
sat1700:00+8sw2279100 0.0 101938
03:00+7nw118192 0.0 101910
06:00+7w2288100 0.9 101985
09:00+6wsw4692100 10.3 1019763
12:00+6w5790100 6.3 1019784
15:00+7sw4687100 6.4 1019858
18:00+7s4691100 0.1 1019381
21:00+7sse5892100 2.9 1020508
18 april, sun
sun1800:00+5sse36956 0.6 1021178
03:00+4ese229557 0.6 102243
06:00+4ne249570 0.0 1022110
09:00+7e358784 0.0 1023347
12:00+11e456483 0.4 10231273
15:00+13ene345985 0.6 10221314
18:00+12ne356497 0.1 1023334
21:00+8ne5108664 0.3 1024393